RH
70 68 66 64 61 63 66 68 69 69 65 54 54 60 62 75 85 83 91 72 68 70 65 65 78 75 56 60 53 57 68 69 56 51 41 36 34 33 31 31 27 26 40 53 67
66 66 65 64 66 64 60 66 67 69 69 59 54 56 59 70 90 95 68 65 61 60 64 76 86 72 72 66 61 61 74 66 49 45 42 40 39 38 35 39 32 37 35 81 83
65 61 60 63 64 62 62 64 64 68 69 64 60 55 57 69 96 83 68 67 62 61 63 72 71 70 76 67 66 65 66 56 50 44 43 47 46 41 41 40 35 35 38 68 84
60 62 64 62 61 62 65 65 64 65 69 66 59 58 55 82 92 54 56 59 64 56 71 76 73 78 80 76 64 69 61 52 47 50 49 50 43 44 44 40 33 40 38 33 77
60 62 63 63 64 64 64 64 65 66 66 65 63 59 70 96 81 60 57 50 56 61 75 74 80 76 75 68 64 66 59 55 51 52 50 47 49 45 46 42 40 40 41 37 33
65 63 62 64 63 61 62 66 66 65 66 66 66 70 80 97 54 66 53 55 58 64 77 71 72 62 64 67 62 60 56 54 52 49 48 52 50 50 45 42 42 43 40 39 38
66 64 64 64 64 65 65 66 64 63 64 65 62 70 90 76 52 66 58 73 61 63 79 78 59 61 62 70 59 61 67 59 54 53 52 51 54 61 45 42 42 39 41 41 39
67 69 69 66 64 61 64 64 66 71 66 64 62 78 82 58 63 65 68 70 67 68 70 76 63 64 62 57 61 67 61 75 56 56 51 45 56 46 42 48 46 43 42 46 41
65 62 67 69 61 64 65 68 70 71 67 64 80 84 78 66 76 62 65 67 85 88 87 72 73 76 66 74 79 73 84 78 61 57 55 53 63 48 47 45 45 44 43 43 41
69 70 63 60 59 64 68 72 68 71 73 70 74 86 74 81 75 61 53 79 82 89 78 77 80 89 86 79 82 79 79 78 65 53 59 64 67 53 42 45 49 46 44 45 45
74 78 74 67 61 65 80 88 81 78 86 80 72 75 74 75 74 75 51 77 82 80 91 87 91 89 81 73 63 65 71 71 65 53 54 60 60 50 43 44 43 41 38 35 32
72 74 76 74 66 66 90 92 80 76 88 71 72 65 64 84 86 77 57 88 86 95 90 97 88 71 67 65 66 69 75 76 62 52 53 57 56 46 41 44 42 40 38 38 36
75 77 75 76 68 88 92 87 85 84 84 71 75 68 72 81 76 80 63 69 86 93 94 98 90 67 69 77 75 80 79 76 68 57 55 60 56 45 38 36 35 33 34 32 34
78 75 80 76 84 89 88 84 86 79 92 91 83 78 85 74 79 56 53 72 87 93 89 93 90 84 81 78 73 92 73 63 60 67 71 60 66 53 45 33 36 41 43 38 36
74 77 77 79 92 90 87 84 84 73 80 65 83 80 84 89 80 71 63 72 86 84 81 88 97 93 90 88 72 83 59 62 63 70 68 65 66 43 38 37 39 41 46 48 44
74 80 79 87 89 90 91 86 80 87 98 92 88 93 94 78 79 72 74 66 73 76 72 67 59 66 87 84 79 58 61 66 71 71 83 64 64 38 38 39 40 40 42 47 48
75 75 85 88 99 90 90 84 91 94 82 100 99 97 84 94 79 74 89 79 94 99 100 94 75 59 68 86 65 60 76 88 76 87 78 72 74 50 41 41 40 40 42 44 46
80 75 82 81 90 87 89 89 91 95 99 96 97 87 83 88 84 81 85 85 71 82 97 94 95 66 60 68 75 68 68 87 62 68 58 71 73 42 44 38 37 41 43 46 49
76 90 90 86 87 90 93 98 95 98 100 100 91 98 99 90 83 93 84 79 73 66 82 84 92 64 63 62 63 74 84 64 85 79 83 59 53 33 43 42 42 45 50 49 51
94 93 88 85 91 93 96 97 100 100 95 84 95 84 96 92 98 94 81 74 72 66 64 73 95 72 67 59 62 67 65 83 89 79 62 48 51 32 44 42 46 46 48 50 55
92 86 76 91 84 95 99 100 98 83 88 82 91 89 88 90 84 80 72 70 64 67 60 69 77 85 69 78 77 75 82 81 73 74 59 46 33 41 40 46 49 45 48 52 69
94 91 80 87 95 98 98 95 83 88 86 75 71 73 79 80 77 81 75 68 60 58 69 68 82 95 84 70 66 68 75 70 84 84 90 83 51 43 44 45 48 45 48 56 73
98 94 84 92 99 98 88 92 86 91 86 68 71 69 70 71 74 76 72 67 62 60 64 62 83 96 88 74 72 81 75 70 74 84 97 81 43 45 50 46 44 47 52 76 68
96 96 93 96 95 95 94 96 89 88 77 66 69 64 70 77 72 76 77 76 69 66 64 59 75 76 84 78 84 92 83 75 81 94 81 83 62 47 46 49 49 50 65 73 66
98 95 89 99 94 94 91 91 89 91 80 70 71 69 71 82 82 84 81 79 72 71 69 67 89 84 76 73 84 82 83 82 86 79 85 60 73 52 50 52 46 50 78 73 62
96 95 88 90 86 84 83 86 90 92 91 84 83 84 76 76 71 82 77 82 79 75 72 72 97 91 89 75 84 90 80 83 78 76 76 72 73 48 46 50 59 80 80 71 58
94 89 98 86 93 91 89 85 84 87 90 87 82 86 83 87 88 72 72 68 68 74 79 74 92 90 89 78 80 92 83 80 82 79 68 84 63 54 55 61 67 85 75 64 59
Wind_Speed
19 19 19 20 18 18 18 18 16 14 13 13 14 18 17 16 20 10 17 8 14 17 3 6 6 4 2 3 3 3 3 6 9 9 4 3 4 1 1 1 2 2 2 6 3
20 20 20 19 19 19 17 16 18 15 13 13 14 16 17 16 15 16 6 17 19 18 12 10 11 8 3 4 3 4 4 9 5 6 4 5 3 3 2 2 2 1 3 4 8
20 20 20 19 19 19 17 17 15 16 14 12 14 14 15 11 7 6 20 26 21 18 7 9 11 8 4 3 4 5 5 4 3 4 4 6 3 3 4 3 4 2 1 3 5
19 20 20 19 18 17 16 16 17 16 15 13 13 13 11 6 6 1 6 20 25 15 10 10 12 10 6 7 5 4 5 4 2 5 4 4 4 1 4 4 3 4 1 1 7
19 19 19 17 16 15 14 14 14 13 12 14 14 12 5 7 8 1 12 9 20 16 17 13 14 9 13 8 6 3 3 5 3 3 3 3 3 5 6 5 5 4 4 5 2
20 19 18 16 15 14 14 14 13 11 12 12 12 10 5 10 5 2 9 5 13 18 18 10 12 5 9 6 6 7 6 3 2 2 1 4 4 6 5 3 5 4 9 7 7
20 18 19 15 14 14 15 11 11 10 10 11 11 4 7 13 3 6 7 4 15 18 18 7 9 7 7 5 4 6 4 4 7 4 3 4 5 7 10 6 9 9 7 9 10
19 18 18 15 16 14 13 13 12 13 12 9 8 1 7 3 5 5 7 4 9 13 14 8 5 6 3 4 4 5 2 4 2 9 6 6 5 5 2 4 9 9 8 8 13
20 19 15 14 15 14 13 13 16 15 12 8 1 3 6 2 4 5 5 5 10 7 6 9 6 4 3 6 4 4 4 5 3 7 3 8 2 4 2 3 7 8 9 8 11
22 22 18 14 13 12 12 13 14 5 2 3 1 3 5 5 4 2 3 6 7 12 11 12 5 4 3 6 10 9 4 3 6 3 2 3 5 8 9 2 7 9 11 11 9
26 19 18 14 11 9 4 4 5 4 2 4 4 5 5 3 3 2 1 4 7 10 10 12 7 17 16 5 4 8 5 4 3 1 2 4 4 10 10 6 10 12 13 14 12
27 22 16 12 9 6 4 3 2 2 4 4 8 8 7 7 4 2 3 5 8 7 6 8 12 9 12 8 7 6 6 4 1 2 1 3 9 15 9 5 5 8 10 8 7
27 26 18 8 2 5 3 3 4 1 2 2 2 6 8 9 9 12 6 1 4 10 13 1 1 15 14 9 9 3 5 3 3 1 2 6 5 4 3 3 6 9 4 3 4
27 24 14 8 5 3 0 3 1 1 5 3 3 3 3 2 5 3 5 2 3 7 16 4 3 8 13 15 8 5 3 3 4 3 1 4 5 4 3 5 7 9 10 8 8
25 19 13 10 2 2 3 2 3 5 8 6 2 4 5 4 8 1 4 3 4 7 4 1 9 16 9 2 8 2 4 4 3 4 1 3 2 4 1 4 5 6 7 6 6
20 19 10 5 2 2 3 3 5 8 4 3 4 5 2 5 1 5 4 3 2 10 13 5 2 4 3 5 5 9 6 6 3 2 1 1 2 3 1 2 1 3 5 6 6
15 14 7 2 3 4 3 3 6 7 6 3 2 3 10 5 6 3 1 3 4 5 3 5 5 4 9 8 4 1 3 1 3 3 3 2 1 6 3 3 5 1 5 6 6
15 6 5 3 2 5 3 6 10 2 2 2 0 12 7 5 7 4 2 5 5 5 4 3 4 4 1 4 8 1 1 4 4 3 1 2 6 3 5 4 3 3 6 6 4
8 3 2 3 1 3 2 7 5 2 3 1 6 8 5 9 5 5 3 3 3 1 6 5 3 1 5 3 1 3 2 1 7 2 1 2 5 6 2 3 3 7 5 9 6
2 3 3 4 1 4 4 3 1 4 3 2 4 2 3 3 3 1 2 2 3 3 1 2 6 3 2 3 8 3 6 3 3 3 3 3 4 3 4 5 4 8 7 7 6
3 3 2 4 2 3 4 3 3 2 3 2 3 5 3 5 4 2 1 1 2 3 5 4 4 3 3 1 6 2 1 4 4 1 2 2 4 5 7 5 4 9 7 6 5
2 4 2 1 5 2 3 5 4 4 3 2 4 5 4 2 4 3 3 2 2 4 4 1 4 4 1 1 1 2 5 4 4 4 1 1 6 2 5 4 4 9 7 6 6
3 3 2 2 4 3 2 3 1 3 3 2 2 2 1 3 5 3 2 4 2 3 6 5 2 4 1 1 3 2 4 4 4 4 4 4 4 1 2 6 6 6 6 5 8
2 3 5 4 2 2 3 3 3 2 2 3 3 4 4 4 5 4 3 4 1 3 8 6 3 4 6 4 3 3 3 4 5 4 4 6 6 9 7 6 10 8 3 5 6
3 1 1 3 3 3 1 3 1 4 4 5 3 2 4 4 2 3 3 3 5 4 4 4 4 2 2 1 3 3 5 8 7 5 6 2 6 8 10 8 10 6 4 6 7
3 3 3 3 3 4 2 4 2 0 2 3 5 2 1 4 4 7 7 3 4 2 3 2 3 2 3 0 5 4 7 9 8 3 8 7 18 14 13 6 5 3 5 6 7
3 2 2 4 3 1 1 1 3 1 2 4 4 4 6 3 1 2 1 4 7 7 3 4 5 3 3 2 3 6 10 13 5 5 9 7 11 3 8 6 5 3 2 5 5
Wind_Direction
319 320 317 317 318 314 311 306 301 282 287 288 300 300 311 308 314 233 231 216 211 241 108 140 180 159 108 142 122 134 133 193 200 166 203 163 168 179 49 96 321 193 333 314 191
326 323 318 317 313 309 309 308 303 294 286 288 296 302 307 319 310 233 216 221 222 227 237 191 180 143 156 172 169 158 183 207 197 173 184 162 171 174 133 26 238 137 3 44 158
319 320 319 321 311 313 319 306 303 298 282 278 292 304 296 321 273 246 224 225 216 215 206 193 162 154 168 158 176 161 201 180 207 185 131 147 162 168 133 255 227 149 328 89 163
327 323 322 323 320 324 319 312 307 300 298 293 288 301 303 292 245 27 216 218 210 199 197 178 163 171 160 182 167 153 208 172 172 194 126 161 137 188 197 216 145 151 358 100 167
326 326 323 326 322 324 319 315 308 296 289 286 289 297 315 235 234 68 337 312 190 190 195 181 169 173 186 177 120 176 189 196 199 125 173 133 190 230 245 243 258 266 282 275 214
322 322 322 321 319 320 316 322 311 298 294 292 292 295 234 257 203 323 336 313 179 191 192 178 177 154 160 181 172 182 185 168 216 224 221 178 225 147 256 258 248 225 260 264 262
323 321 317 314 313 313 317 313 315 305 295 288 288 278 239 229 31 23 337 296 181 193 182 184 155 150 129 126 179 127 136 253 227 198 242 162 271 228 239 247 257 263 260 268 254
327 321 315 313 315 314 313 314 299 288 285 280 282 275 252 210 236 272 297 303 178 184 179 179 162 108 126 117 73 117 89 163 239 172 219 130 248 232 270 215 261 272 272 264 271
322 317 316 309 311 314 306 309 302 300 280 258 254 177 254 72 211 233 183 268 136 147 154 153 150 150 107 119 100 172 184 196 300 190 136 201 231 227 320 186 275 283 280 255 264
329 322 314 305 309 309 317 307 308 335 31 101 301 117 252 203 159 117 197 197 157 153 162 179 173 142 126 174 189 166 135 174 199 177 156 192 262 271 297 224 247 272 276 270 247
324 313 300 298 305 313 352 349 21 2 37 190 197 244 138 105 357 63 225 150 147 137 178 181 172 197 184 146 161 132 134 167 198 111 192 230 249 271 264 259 253 249 253 258 269
334 324 300 283 287 337 120 144 176 165 315 257 248 275 286 316 164 261 162 179 156 181 53 155 205 181 155 141 132 130 140 188 82 71 148 336 283 260 255 241 256 274 275 282 292
348 341 320 244 261 73 149 180 75 280 284 343 151 235 239 215 130 198 186 217 120 130 131 99 274 160 165 166 137 130 154 168 128 44 79 316 296 308 30 27 21 13 332 350 335
358 3 32 100 76 149 311 133 89 150 76 11 131 171 254 127 93 155 184 114 76 128 124 157 162 124 147 181 167 151 95 104 111 90 275 359 300 307 10 67 32 24 32 32 29
7 19 30 42 106 15 359 68 150 67 69 297 354 331 44 345 141 81 4 0 112 94 155 55 157 155 149 98 107 131 130 117 99 97 56 22 129 274 278 75 20 353 357 3 6
16 19 14 10 41 357 118 57 45 40 34 343 31 24 208 124 112 111 81 11 173 58 46 69 67 65 93 62 99 154 79 58 55 94 62 231 205 297 144 124 322 306 336 349 3
351 25 50 15 16 19 346 33 32 57 279 63 74 339 120 118 114 102 121 93 102 118 74 42 15 73 114 77 40 45 135 55 22 43 210 24 147 250 258 208 195 282 339 342 350
338 2 344 81 31 15 355 42 57 23 2 54 283 139 101 125 72 74 164 87 59 70 108 119 114 358 27 137 159 130 178 158 185 182 209 70 231 234 214 318 213 286 287 281 316
345 328 351 299 357 76 22 47 160 283 307 35 85 56 52 53 79 77 345 77 44 53 127 130 80 10 43 91 85 187 95 136 103 23 10 207 279 292 89 171 258 318 334 1 346
67 351 276 307 17 75 71 75 2 195 242 175 81 47 87 85 77 85 53 282 105 34 44 117 93 34 169 72 39 97 136 89 9 136 249 270 267 209 223 213 285 347 349 331 327
48 40 257 331 77 53 53 35 312 279 215 111 168 105 104 136 125 124 52 347 76 54 77 110 88 27 119 73 160 120 112 58 102 101 172 300 266 208 199 195 307 341 327 320 332
17 34 255 82 55 17 11 335 331 304 220 264 100 91 103 134 77 83 127 168 183 134 79 60 113 111 117 165 198 148 154 143 122 208 92 89 274 243 209 225 328 301 308 325 342
354 283 309 72 69 19 321 304 265 322 343 30 91 104 97 114 106 104 104 343 147 97 156 178 52 97 126 177 13 183 169 121 96 69 205 156 255 198 285 288 288 278 317 339 347
39 7 326 36 152 98 6 311 337 235 317 20 102 68 92 61 27 132 102 10 238 76 90 89 109 149 180 200 133 166 167 171 132 150 179 228 295 288 297 301 316 320 332 343 348
31 35 20 317 356 353 147 288 333 0 345 30 56 64 140 115 97 110 106 109 30 115 61 95 116 110 255 155 128 198 175 184 196 189 170 249 226 272 280 295 303 314 359 355 348
7 349 334 282 286 298 17 10 1 331 338 2 107 38 148 136 174 185 135 148 177 63 101 23 126 95 346 150 203 242 221 198 218 228 266 265 286 273 275 287 285 46 7 333 346
335 308 295 306 338 51 269 292 307 234 52 60 146 95 48 322 216 135 94 117 145 138 129 113 131 86 274 352 298 281 221 197 184 205 208 207 233 320 307 318 338 2 321 343 346